Fort Drum, NY

12:15 AM EST on November 22, 2017 (GMT -0500)
Wheeler-Sack Army Air Field

Weather History for KGTB - February, 2013

Change the Weather History Date:

Saturday, February 23, 2013

  Actual Average Record
Temperature  
Mean Temperature 32 °F -  
Max Temperature 35 °F 30 °F 60 °F (2017)
Min Temperature 30 °F 11 °F -4 °F (1999)
Degree Days  
Heating Degree Days 32    
Moisture  
Dew Point 32 °F    
Average Humidity 95    
Maximum Humidity 100    
Minimum Humidity 73    
Precipitation  
Precipitation 0.06 in - - ()
Sea Level Pressure  
Sea Level Pressure 29.94 in    
Wind  
Wind Speed 9 mph (SSE)    
Max Wind Speed 17 mph    
Max Gust Speed 25 mph    
Visibility 8 miles    
Events Rain , Snow    
Averages and records for this station are not official NWS values.
T = Trace of Precipitation, MM = Missing Value Source: NWS Daily Summary

Daily Weather History Graph

Daily Weather History Graph

Search for Another Location

Airport or City:

Trip Planner

Search our weather history database for the weather conditions in past years. The results will help you decide how hot, cold, wet, or windy it might be!

Date:

Astronomy

Feb. 23, 2013 Rise Set
Actual Time 6:49 AM EST 5:43 PM EST
Civil Twilight 6:20 AM EST 6:12 PM EST
Nautical Twilight 5:46 AM EST 6:46 PM EST
Astronomical Twilight 5:13 AM EST 7:19 PM EST
Moon 3:49 PM EST (2/23) 5:13 AM EST (2/23)
Length of Visible Light 11h 52m
Length of Day
10h 54m
Waxing Gibbous, 95% of the Moon is Illuminated
Feb 23
Waxing Gibbous
Feb 25
Full
Mar 4
Last Quarter
Mar 11
New
Mar 19
First Quarter

Hourly Weather History & Observations

Time (EST) Temp. Windchill Dew Point Humidity Pressure Visibility Wind Dir Wind Speed Gust Speed Precip Events Conditions
12:55 AM 32.2 °F 21.1 °F 24.8 °F 74% 30.07 in 10.0 mi SSE 17.3 mph 25.3 mph N/A   Overcast
1:14 AM 32.0 °F 21.2 °F 24.8 °F 75% 30.06 in 10.0 mi SSE 16.1 mph - N/A   Overcast
1:55 AM 32.4 °F 22.1 °F 24.6 °F 73% 30.06 in 10.0 mi SSE 15.0 mph - N/A   Overcast
2:55 AM 32.2 °F 24.4 °F 25.0 °F 75% 30.04 in 10.0 mi SSE 9.2 mph - N/A   Overcast
3:55 AM 33.1 °F 23.4 °F 25.3 °F 73% 30.02 in 10.0 mi SSE 13.8 mph - N/A   Overcast
4:55 AM 32.9 °F 25.3 °F 26.1 °F 76% 30.04 in 10.0 mi South 9.2 mph - N/A   Overcast
4:56 AM 33.8 °F 25.8 °F 26.6 °F 75% 30.04 in 10.0 mi South 10.4 mph - N/A   Overcast
5:01 AM 32.0 °F 23.6 °F 26.6 °F 80% 30.03 in 10.0 mi SSE 10.4 mph - N/A   Overcast
5:08 AM 33.8 °F 26.4 °F 26.6 °F 75% 30.03 in 10.0 mi SSE 9.2 mph - N/A   Overcast
5:54 AM 32.0 °F 24.2 °F 26.6 °F 80% 30.02 in 6.0 mi SSE 9.2 mph - N/A Snow Light Snow
5:55 AM 31.6 °F 23.1 °F 27.1 °F 83% 30.02 in 6.0 mi SSE 10.4 mph - 0.00 in Snow Light Snow
5:57 AM 32.0 °F 23.6 °F 26.6 °F 80% 30.02 in 6.0 mi SE 10.4 mph - N/A Snow Light Snow
6:28 AM 32.0 °F 24.2 °F 26.6 °F 80% 30.02 in 10.0 mi SE 9.2 mph - N/A   Overcast
6:30 AM 32.0 °F 25.6 °F 26.6 °F 80% 30.02 in 10.0 mi SSE 6.9 mph - N/A Rain Light Rain
6:55 AM 31.8 °F 23.3 °F 27.3 °F 83% 30.02 in 9.0 mi SSE 10.4 mph - 0.00 in Snow Light Snow
7:19 AM 30.2 °F 22.6 °F 28.4 °F 93% 30.01 in 4.0 mi SE 8.1 mph - N/A Snow Light Snow
7:26 AM 30.2 °F 21.9 °F 30.2 °F 100% 30.01 in 3.0 mi SE 9.2 mph - N/A Snow Light Snow
7:27 AM 30.2 °F 22.6 °F 30.2 °F 100% 30.01 in 2.5 mi SE 8.1 mph - N/A Snow Light Snow
7:29 AM 30.2 °F 22.6 °F 30.2 °F 100% 30.01 in 2.0 mi SE 8.1 mph - N/A Snow Light Snow
7:33 AM 30.2 °F 22.6 °F 30.2 °F 100% 30.01 in 2.0 mi SE 8.1 mph - N/A Snow Light Snow
7:34 AM 30.2 °F 22.6 °F 30.2 °F 100% 30.01 in 2.5 mi SE 8.1 mph - N/A Snow Light Snow
7:36 AM 30.2 °F 21.9 °F 30.2 °F 100% 30.01 in 3.0 mi SE 9.2 mph - N/A Snow Light Snow
7:43 AM 30.2 °F 23.4 °F 30.2 °F 100% 30.01 in 10.0 mi SSE 6.9 mph - N/A   Overcast
7:55 AM 31.1 °F 23.1 °F 29.7 °F 94% 30.01 in 10.0 mi SSE 9.2 mph - 0.00 in   Overcast
8:00 AM 32.0 °F 24.2 °F 28.4 °F 87% 30.01 in 10.0 mi SSE 9.2 mph - N/A Snow Light Snow
8:09 AM 32.0 °F 24.2 °F 28.4 °F 87% 30.01 in 10.0 mi SSE 9.2 mph - N/A   Overcast
8:55 AM 32.4 °F 23.0 °F 28.9 °F 87% 30.00 in 10.0 mi SSE 12.7 mph - 0.00 in   Overcast
9:27 AM 32.0 °F 24.2 °F 30.2 °F 93% 30.00 in 10.0 mi SSE 9.2 mph - N/A   Overcast
9:30 AM 32.0 °F 24.2 °F 30.2 °F 93% 30.00 in 10.0 mi SSE 9.2 mph - N/A   Overcast
9:55 AM 33.1 °F 25.5 °F 30.0 °F 89% 29.99 in 10.0 mi SE 9.2 mph - 0.00 in Snow Light Snow
10:39 AM 32.0 °F 24.8 °F 32.0 °F 100% 29.98 in 3.0 mi SE 8.1 mph - N/A Snow Light Snow
10:42 AM 32.0 °F 25.6 °F 32.0 °F 100% 29.98 in 3.0 mi SE 6.9 mph - N/A Snow Light Snow
10:46 AM 32.0 °F 25.6 °F 32.0 °F 100% 29.98 in 3.0 mi SE 6.9 mph - N/A Snow Light Snow
10:47 AM 32.0 °F 24.8 °F 32.0 °F 100% 29.98 in 3.0 mi SE 8.1 mph - N/A Snow Light Snow
10:55 AM 32.5 °F 25.5 °F 32.4 °F 99% 29.97 in 3.0 mi SE 8.1 mph - 0.02 in Snow Light Snow
11:20 AM 33.8 °F 26.4 °F 32.0 °F 93% 29.96 in 7.0 mi SE 9.2 mph - N/A Snow Light Snow
11:21 AM 33.8 °F 26.4 °F 32.0 °F 93% 29.96 in 7.0 mi SE 9.2 mph - N/A Snow Light Snow
11:38 AM 33.8 °F 25.8 °F 33.8 °F 100% 29.96 in 10.0 mi SE 10.4 mph - N/A   Overcast
11:55 AM 33.4 °F 25.4 °F 32.9 °F 98% 29.96 in 10.0 mi SE 10.4 mph - 0.02 in   Overcast
11:57 AM 33.8 °F 26.4 °F 33.8 °F 100% 29.96 in 10.0 mi SE 9.2 mph - N/A   Overcast
12:45 PM 33.8 °F 28.6 °F 33.8 °F 100% 29.94 in 10.0 mi SSE 5.8 mph - N/A   Overcast
12:55 PM 34.9 °F 29.9 °F 33.1 °F 93% 29.94 in 10.0 mi SSE 5.8 mph - N/A   Overcast
1:13 PM 35.6 °F 29.9 °F 33.8 °F 93% 29.93 in 10.0 mi SSE 6.9 mph - N/A   Overcast
1:45 PM 35.6 °F 29.9 °F 33.8 °F 93% 29.92 in 10.0 mi SSE 6.9 mph - N/A   Overcast
1:55 PM 35.1 °F 28.6 °F 33.8 °F 95% 29.92 in 10.0 mi SSE 8.1 mph - 0.00 in   Overcast
2:55 PM 35.1 °F 29.3 °F 34.0 °F 96% 29.91 in 10.0 mi SSE 6.9 mph - N/A   Overcast
3:28 PM 35.6 °F 29.9 °F 33.8 °F 93% 29.90 in 10.0 mi SE 6.9 mph - N/A   Overcast
3:55 PM 34.5 °F 28.6 °F 34.2 °F 99% 29.90 in 8.0 mi SSE 6.9 mph - N/A   Overcast
4:36 PM 33.8 °F 27.7 °F 33.8 °F 100% 29.90 in 7.0 mi SSE 6.9 mph - N/A   Overcast
4:55 PM 34.2 °F 28.2 °F 34.2 °F 100% 29.90 in 9.0 mi SSE 6.9 mph - 0.01 in   Overcast
5:00 PM 33.8 °F 27.0 °F 33.8 °F 100% 29.89 in 10.0 mi SE 8.1 mph - N/A   Overcast
5:12 PM 33.8 °F 27.7 °F 33.8 °F 100% 29.89 in 10.0 mi SE 6.9 mph - N/A   Overcast
5:13 PM 33.8 °F 27.7 °F 33.8 °F 100% 29.89 in 10.0 mi SE 6.9 mph - N/A   Overcast
5:15 PM 33.8 °F 28.6 °F 33.8 °F 100% 29.89 in 10.0 mi SSE 5.8 mph - N/A   Overcast
5:21 PM 33.8 °F 27.7 °F 33.8 °F 100% 29.89 in 10.0 mi SE 6.9 mph - N/A   Overcast
5:55 PM 34.0 °F 28.0 °F 34.0 °F 100% 29.89 in 10.0 mi SSE 6.9 mph - 0.00 in   Overcast
6:03 PM 33.8 °F 28.6 °F 33.8 °F 100% 29.89 in 10.0 mi SE 5.8 mph - N/A   Overcast
6:55 PM 33.8 °F 29.6 °F 33.8 °F 100% 29.89 in 10.0 mi SE 4.6 mph - N/A   Overcast
6:59 PM 33.8 °F 29.6 °F 33.8 °F 100% 29.89 in 10.0 mi SE 4.6 mph - N/A   Overcast
7:09 PM 33.8 °F 28.6 °F 33.8 °F 100% 29.89 in 10.0 mi SE 5.8 mph - N/A   Overcast
7:13 PM 33.8 °F 28.6 °F 33.8 °F 100% 29.88 in 10.0 mi SE 5.8 mph - N/A   Overcast
7:36 PM 33.8 °F 28.6 °F 33.8 °F 100% 29.89 in 9.0 mi SSE 5.8 mph - N/A   Overcast
7:42 PM 33.8 °F 28.6 °F 33.8 °F 100% 29.89 in 7.0 mi SSE 5.8 mph - N/A   Overcast
7:49 PM 33.8 °F 28.6 °F 33.8 °F 100% 29.89 in 6.0 mi South 5.8 mph - N/A   Overcast
7:55 PM 33.6 °F 28.4 °F 33.6 °F 100% 29.89 in 7.0 mi SSE 5.8 mph - N/A   Overcast
7:59 PM 33.8 °F 28.6 °F 33.8 °F 100% 29.89 in 7.0 mi SSE 5.8 mph - N/A   Overcast
8:01 PM 33.8 °F 29.6 °F 33.8 °F 100% 29.89 in 7.0 mi South 4.6 mph - N/A   Overcast
8:23 PM 33.8 °F - 33.8 °F 100% 29.90 in 7.0 mi Calm Calm - N/A   Overcast
8:55 PM 33.8 °F - 33.8 °F 100% 29.90 in 7.0 mi Calm Calm - N/A   Overcast
9:13 PM 33.8 °F - 33.8 °F 100% 29.89 in 7.0 mi Calm Calm - N/A   Overcast
9:21 PM 33.8 °F 30.8 °F 33.8 °F 100% 29.88 in 10.0 mi South 3.5 mph - N/A   Overcast
9:31 PM 33.8 °F 30.8 °F 33.8 °F 100% 29.88 in 10.0 mi South 3.5 mph - N/A   Overcast
9:37 PM 33.8 °F 30.8 °F 33.8 °F 100% 29.88 in 10.0 mi SSW 3.5 mph - N/A   Overcast
9:41 PM 33.8 °F 30.8 °F 33.8 °F 100% 29.88 in 10.0 mi SSW 3.5 mph - N/A   Overcast
9:44 PM 33.8 °F 30.8 °F 33.8 °F 100% 29.88 in 10.0 mi SSW 3.5 mph - N/A   Overcast
9:55 PM 33.4 °F - 33.4 °F 100% 29.87 in 9.0 mi Calm Calm - N/A   Overcast
9:57 PM 33.8 °F - 33.8 °F 100% 29.87 in 9.0 mi Calm Calm - N/A   Overcast
10:05 PM 33.8 °F - 33.8 °F 100% 29.87 in 8.0 mi Calm Calm - N/A   Overcast
10:18 PM 33.8 °F 26.4 °F 33.8 °F 100% 29.88 in 10.0 mi West 9.2 mph - N/A   Overcast
10:19 PM 33.8 °F 25.8 °F 33.8 °F 100% 29.88 in 10.0 mi West 10.4 mph - N/A   Overcast
10:21 PM 33.8 °F 25.8 °F 33.8 °F 100% 29.88 in 10.0 mi West 10.4 mph - N/A   Overcast
10:22 PM 33.8 °F 25.8 °F 33.8 °F 100% 29.88 in 10.0 mi West 10.4 mph - N/A   Overcast
10:24 PM 33.8 °F 26.4 °F 33.8 °F 100% 29.88 in 10.0 mi WSW 9.2 mph - N/A   Overcast
10:26 PM 33.8 °F 27.0 °F 33.8 °F 100% 29.88 in 10.0 mi West 8.1 mph - N/A   Light Drizzle
10:40 PM 33.8 °F 27.0 °F 33.8 °F 100% 29.88 in 8.0 mi WSW 8.1 mph - N/A   Overcast
10:55 PM 32.5 °F 26.2 °F 32.5 °F 100% 29.88 in 8.0 mi WSW 6.9 mph - 0.01 in   Overcast
11:11 PM 32.0 °F 24.8 °F 32.0 °F 100% 29.88 in 9.0 mi WSW 8.1 mph - N/A Rain Light Rain
11:14 PM 32.0 °F 24.8 °F 32.0 °F 100% 29.88 in 9.0 mi West 8.1 mph - N/A   Light Drizzle
11:24 PM 32.0 °F 25.6 °F 32.0 °F 100% 29.88 in 10.0 mi WSW 6.9 mph - N/A   Overcast
11:55 PM 31.8 °F 26.2 °F 31.8 °F 100% 29.87 in 10.0 mi SW 5.8 mph - 0.00 in   Overcast